EZY987 EDDP-EDDE

Flight info

Callsign EZY987
Flight time 0h 25m
Altitude 16000
Route GOLAT1K GOLAT DCT RELKO RELKO1R
Aircraft A320/M-SDE3FGHIRWY/LB1

Departure

Time 2026-04-30 19:34
Airport Leipzig/Halle Airport (EDDP)

Arrival

Time 2026-04-30 19:59
Airport Erfurt-Weimar Airport (EDDE)
Time Latitude Longitude Altitude Speed Heading
2026-04-30 19:08 51.41924 12.21957 427 ft 0 kts 15°
2026-04-30 19:09 51.41927 12.21958 436 ft 0 kts 15°
2026-04-30 19:23 51.41923 12.21957 423 ft 2 kts 16°
2026-04-30 19:24 51.41886 12.21938 433 ft 3 kts 17°
2026-04-30 19:24 51.41867 12.21930 436 ft 3 kts
2026-04-30 19:24 51.41832 12.21939 429 ft 3 kts 324°
2026-04-30 19:25 51.41812 12.21998 425 ft 0 kts 285°
2026-04-30 19:28 51.41817 12.21969 432 ft 5 kts 285°
2026-04-30 19:29 51.41844 12.21809 433 ft 15 kts 285°
2026-04-30 19:29 51.41875 12.21632 435 ft 17 kts 285°
2026-04-30 19:30 51.41993 12.20942 426 ft 11 kts 293°
2026-04-30 19:30 51.42148 12.20964 416 ft 20 kts 15°
2026-04-30 19:31 51.42445 12.21092 429 ft 23 kts 15°
2026-04-30 19:31 51.42610 12.21160 436 ft 26 kts 13°
2026-04-30 19:31 51.42839 12.21265 429 ft 0 kts 16°
2026-04-30 19:32 51.42840 12.21266 430 ft 2 kts 16°
2026-04-30 19:32 51.42909 12.21316 422 ft 19 kts 36°
2026-04-30 19:32 51.43024 12.21499 430 ft 25 kts 46°
2026-04-30 19:33 51.43110 12.21637 426 ft 9 kts 44°
2026-04-30 19:33 51.43130 12.21711 430 ft 0 kts 85°
2026-04-30 19:33 51.43132 12.21746 434 ft 25 kts 85°
2026-04-30 19:33 51.43165 12.22498 432 ft 108 kts 85°
2026-04-30 19:34 51.43244 12.24133 533 ft 176 kts 85°
2026-04-30 19:34 51.43369 12.26147 1415 ft 183 kts 82°
2026-04-30 19:34 51.43647 12.30460 2630 ft 215 kts 84°
2026-04-30 19:35 51.43738 12.33014 3037 ft 245 kts 85°
2026-04-30 19:35 51.43813 12.35801 3935 ft 254 kts 86°
2026-04-30 19:35 51.43898 12.38622 4966 ft 258 kts 86°
2026-04-30 19:35 51.44008 12.41457 6145 ft 256 kts 85°
2026-04-30 19:36 51.44140 12.44361 6688 ft 258 kts 85°
2026-04-30 19:36 51.44273 12.47229 6919 ft 258 kts 85°
2026-04-30 19:36 51.43550 12.52680 7443 ft 265 kts 126°
2026-04-30 19:37 51.42075 12.54484 7933 ft 276 kts 154°
2026-04-30 19:37 51.40152 12.55030 8451 ft 287 kts 173°
2026-04-30 19:37 51.38147 12.55222 8962 ft 290 kts 172°
2026-04-30 19:37 51.36121 12.55437 9497 ft 293 kts 172°
2026-04-30 19:38 51.34074 12.55661 10025 ft 296 kts 172°
2026-04-30 19:38 51.32007 12.55888 10539 ft 303 kts 172°
2026-04-30 19:38 51.29834 12.56139 11031 ft 322 kts 172°
2026-04-30 19:38 51.27534 12.56409 11529 ft 341 kts 172°
2026-04-30 19:39 51.25125 12.56686 12034 ft 351 kts 172°
2026-04-30 19:39 51.22668 12.56962 12543 ft 356 kts 173°
2026-04-30 19:39 51.20172 12.56990 13056 ft 364 kts 185°
2026-04-30 19:39 51.17734 12.55802 13582 ft 372 kts 206°
2026-04-30 19:40 51.15664 12.53311 14119 ft 377 kts 228°
2026-04-30 19:40 51.14267 12.49798 14605 ft 378 kts 250°
2026-04-30 19:40 51.13714 12.45722 15096 ft 378 kts 270°
2026-04-30 19:40 51.13601 12.41518 15568 ft 382 kts 271°
2026-04-30 19:41 51.13506 12.37269 16064 ft 387 kts 271°
2026-04-30 19:41 51.13411 12.32930 16368 ft 392 kts 271°
2026-04-30 19:41 51.13309 12.28617 16431 ft 393 kts 271°
2026-04-30 19:41 51.13205 12.24270 16440 ft 393 kts 271°
2026-04-30 19:42 51.13099 12.19925 16441 ft 393 kts 271°
2026-04-30 19:42 51.12990 12.15573 16445 ft 393 kts 271°
2026-04-30 19:42 51.12875 12.11223 16445 ft 393 kts 270°
2026-04-30 19:42 51.12754 12.06874 16444 ft 393 kts 270°
2026-04-30 19:43 51.12629 12.02527 16445 ft 393 kts 270°
2026-04-30 19:43 51.12503 11.98180 16444 ft 393 kts 270°
2026-04-30 19:43 51.12380 11.93841 16444 ft 393 kts 270°
2026-04-30 19:44 51.12132 11.85216 16431 ft 391 kts 270°
2026-04-30 19:44 51.12007 11.80944 16169 ft 383 kts 270°
2026-04-30 19:44 51.11884 11.76730 15824 ft 379 kts 270°
2026-04-30 19:44 51.11761 11.72561 15480 ft 375 kts 270°
2026-04-30 19:45 51.11636 11.68429 15139 ft 372 kts 270°
2026-04-30 19:45 51.11512 11.64329 14803 ft 370 kts 269°
2026-04-30 19:45 51.11387 11.60264 14475 ft 366 kts 269°
2026-04-30 19:45 51.11260 11.56227 14132 ft 363 kts 269°
2026-04-30 19:46 51.11133 11.52228 13758 ft 361 kts 269°
2026-04-30 19:46 51.11007 11.48249 13390 ft 359 kts 269°
2026-04-30 19:46 51.10879 11.44290 13026 ft 357 kts 269°
2026-04-30 19:46 51.10748 11.40354 12655 ft 356 kts 269°
2026-04-30 19:47 51.10614 11.36422 12298 ft 355 kts 268°
2026-04-30 19:47 51.10527 11.33830 12065 ft 354 kts 268°
2026-04-30 19:47 51.10351 11.28630 11600 ft 351 kts 268°
2026-04-30 19:47 51.10220 11.24756 11249 ft 349 kts 268°
2026-04-30 19:48 51.10092 11.20912 10911 ft 348 kts 268°
2026-04-30 19:48 51.09961 11.17080 10570 ft 346 kts 268°
2026-04-30 19:48 51.09829 11.13284 10227 ft 341 kts 268°
2026-04-30 19:48 51.09698 11.09549 9857 ft 335 kts 268°
2026-04-30 19:49 51.09568 11.05873 9489 ft 330 kts 268°
2026-04-30 19:49 51.09306 10.98691 8766 ft 320 kts 267°
2026-04-30 19:49 51.09178 10.95203 8464 ft 308 kts 267°
2026-04-30 19:50 51.09057 10.91950 8428 ft 281 kts 267°
2026-04-30 19:50 51.08946 10.88942 8436 ft 270 kts 267°
2026-04-30 19:50 51.08835 10.85971 8438 ft 269 kts 266°
2026-04-30 19:50 51.08721 10.82990 8439 ft 269 kts 266°
2026-04-30 19:51 51.08605 10.80022 8436 ft 269 kts 266°
2026-04-30 19:51 51.08491 10.77051 8435 ft 269 kts 266°
2026-04-30 19:51 51.08380 10.74082 8438 ft 269 kts 266°
2026-04-30 19:51 51.08328 10.71106 8394 ft 271 kts 274°
2026-04-30 19:52 51.08538 10.68130 7957 ft 272 kts 277°
2026-04-30 19:52 51.08490 10.65200 7453 ft 268 kts 253°
2026-04-30 19:52 51.07683 10.62588 6943 ft 262 kts 228°
2026-04-30 19:52 51.06313 10.60814 6408 ft 250 kts 199°
2026-04-30 19:53 51.04662 10.60218 5866 ft 240 kts 176°
2026-04-30 19:53 51.03042 10.60647 5287 ft 233 kts 154°
2026-04-30 19:53 51.01726 10.61933 5046 ft 214 kts 134°
2026-04-30 19:53 51.00829 10.63699 4835 ft 199 kts 117°
2026-04-30 19:54 51.00355 10.65680 4612 ft 187 kts 101°
2026-04-30 19:54 51.00189 10.67632 4392 ft 168 kts 97°
2026-04-30 19:54 51.00055 10.69368 4165 ft 149 kts 97°
2026-04-30 19:54 50.99935 10.70913 3999 ft 135 kts 97°
2026-04-30 19:55 50.99824 10.72354 3816 ft 129 kts 97°
2026-04-30 19:55 50.99715 10.73748 3635 ft 126 kts 97°
2026-04-30 19:55 50.99608 10.75125 3462 ft 125 kts 97°
2026-04-30 19:55 50.99501 10.76491 3292 ft 124 kts 97°
2026-04-30 19:56 50.99392 10.77837 3124 ft 121 kts 97°
2026-04-30 19:56 50.99291 10.79155 2957 ft 120 kts 96°
2026-04-30 19:56 50.99199 10.80460 2784 ft 118 kts 96°
2026-04-30 19:56 50.99100 10.81763 2627 ft 120 kts 96°
2026-04-30 19:57 50.98994 10.83076 2504 ft 121 kts 96°
2026-04-30 19:57 50.98889 10.84411 2378 ft 124 kts 96°
2026-04-30 19:57 50.98787 10.85792 2138 ft 128 kts 94°
2026-04-30 19:57 50.98692 10.87213 1916 ft 129 kts 97°
2026-04-30 19:58 50.98581 10.88610 1750 ft 127 kts 95°
2026-04-30 19:58 50.98465 10.90036 1530 ft 133 kts 97°
2026-04-30 19:58 50.98345 10.91502 1372 ft 135 kts 98°
2026-04-30 19:58 50.98217 10.93009 1187 ft 140 kts 97°
2026-04-30 19:59 50.98087 10.94537 1039 ft 134 kts 97°
2026-04-30 19:59 50.97987 10.95726 1025 ft 70 kts 97°
2026-04-30 19:59 50.97916 10.96297 1027 ft 14 kts 165°
2026-04-30 20:00 50.97820 10.96278 1028 ft 14 kts 187°
2026-04-30 20:00 50.97776 10.96270 1028 ft 0 kts 187°
2026-04-30 20:00 50.97772 10.96269 1028 ft 3 kts 187°
2026-04-30 20:00 50.97750 10.96265 1028 ft 3 kts 187°
2026-04-30 20:01 50.97722 10.96361 1026 ft 12 kts 97°
2026-04-30 20:01 50.97687 10.96436 1027 ft 9 kts 182°
2026-04-30 20:01 50.97629 10.96423 1027 ft 8 kts 188°
2026-04-30 20:02 50.97545 10.96383 1025 ft 5 kts 253°
2026-04-30 20:02 50.97547 10.96337 1027 ft 4 kts 276°
2026-04-30 20:03 50.97548 10.96311 1024 ft 0 kts 276°